Weather History for KCNY - April, 2015

Change the Weather History Date:

Saturday, April 4, 2015

  Actual Average Record
Temperature  
Mean Temperature 46 °F 49 °F  
Max Temperature 69 °F 64 °F 86 °F (1959)
Min Temperature 22 °F 35 °F 19 °F (1931)
Degree Days  
Heating Degree Days 19 16  
Month to date heating degree days 70 64  
Since 1 July heating degree days 4288 5112  
Cooling Degree Days 0 0  
Month to date cooling degree days 0 0  
Year to date cooling degree days 0 0  
Moisture  
Dew Point 1 °F    
Average Humidity 20    
Maximum Humidity 32    
Minimum Humidity 7    
Precipitation  
Precipitation 0.00 in 0.02 in 0.20 in (1958)
Month to date precipitation 0.00 0.08  
Year to date precipitation 0.61 2.01  
Sea Level Pressure  
Sea Level Pressure 30.02 in    
Wind  
Wind Speed 5 mph (SW)    
Max Wind Speed 16 mph    
Max Gust Speed 21 mph    
Visibility 10 miles    
Events      
T = Trace of Precipitation, MM = Missing Value Source: NWS Daily Summary

Daily Weather History Graph

Daily Weather History Graph

Search for Another Location

Airport or City:

Trip Planner

Search our weather history database for the weather conditions in past years. The results will help you decide how hot, cold, wet, or windy it might be!

Date:

Astronomy

Apr. 04, 2015 Rise Set
Actual Time 6:59 AM MDT 7:45 PM MDT
Civil Twilight 6:32 AM MDT 8:12 PM MDT
Nautical Twilight 6:00 AM MDT 8:44 PM MDT
Astronomical Twilight 5:27 AM MDT 9:17 PM MDT
Moon 8:12 PM MDT (4/4) 7:06 AM MDT (4/4)
Length of Visible Light 13h 39m
Length of Day
12h 45m
Full, 100% of the Moon is Illuminated
Apr 4
Full
Apr 11
Last Quarter
Apr 18
New
Apr 25
First Quarter
May 3
Full

Hourly Weather History & Observations

Time (MDT) Temp. Windchill Dew Point Humidity Pressure Visibility Wind Dir Wind Speed Gust Speed Precip Events Conditions
12:53 AM 30.0 °F 26.5 °F -0.0 °F 28% 30.23 in 10.0 mi WSW 3.5 mph - N/A   Clear
1:53 AM 30.0 °F - -0.9 °F 27% 30.22 in 10.0 mi Calm Calm - N/A   Clear
2:53 AM 26.1 °F - -2.9 °F 28% 30.21 in 10.0 mi Calm Calm - N/A   Clear
3:53 AM 28.0 °F 24.2 °F -0.0 °F 30% 30.19 in 10.0 mi WSW 3.5 mph - N/A   Clear
4:53 AM 26.1 °F - -2.0 °F 30% 30.18 in 10.0 mi Calm Calm - N/A   Clear
5:53 AM 27.0 °F - -0.0 °F 31% 30.17 in 10.0 mi Calm Calm - N/A   Clear
6:53 AM 28.0 °F - 1.0 °F 31% 30.18 in 10.0 mi Calm Calm - N/A   Clear
7:53 AM 36.0 °F 30.3 °F 5.0 °F 27% 30.18 in 10.0 mi SE 6.9 mph - N/A   Clear
8:53 AM 43.0 °F 37.7 °F 6.1 °F 22% 30.17 in 10.0 mi SE 9.2 mph - N/A   Clear
9:53 AM 46.9 °F - 6.1 °F 19% 30.17 in 10.0 mi SE 9.2 mph - N/A   Clear
10:53 AM 51.1 °F - 5.0 °F 15% 30.15 in 10.0 mi East 8.1 mph - N/A   Clear
11:53 AM 55.0 °F - 3.9 °F 13% 30.12 in 10.0 mi Calm Calm - N/A   Clear
12:53 PM 57.0 °F - 1.9 °F 11% 30.06 in 10.0 mi Calm Calm - N/A   Clear
1:53 PM 63.0 °F - 3.0 °F 9% 29.99 in 10.0 mi Variable 5.8 mph - N/A   Clear
2:53 PM 63.0 °F - 3.0 °F 9% 29.96 in 10.0 mi NW 9.2 mph - N/A   Clear
3:53 PM 66.9 °F - 3.9 °F 8% 29.90 in 10.0 mi Calm Calm - N/A   Clear
4:53 PM 68.0 °F - 1.0 °F 7% 29.86 in 10.0 mi SSW 12.7 mph 18.4 mph N/A   Clear
5:53 PM 66.9 °F - -0.9 °F 7% 29.83 in 10.0 mi SW 11.5 mph - N/A   Clear
6:53 PM 66.9 °F - -0.0 °F 7% 29.80 in 10.0 mi SW 9.2 mph - N/A   Clear
7:53 PM 57.9 °F - -2.9 °F 8% 29.81 in 9.0 mi SW 10.4 mph - N/A   Clear
8:53 PM 51.1 °F - -2.9 °F 11% 29.81 in 10.0 mi WSW 8.1 mph - N/A   Clear
9:53 PM 51.1 °F - -0.9 °F 12% 29.79 in 10.0 mi WSW 4.6 mph - N/A   Clear
10:53 PM 48.9 °F - -0.0 °F 13% 29.77 in 10.0 mi West 3.5 mph - N/A   Clear
11:53 PM 41.0 °F - -0.9 °F 17% 29.78 in 10.0 mi Calm Calm - N/A   Clear